• In Deutschland
  • Länderverzeichnis
  • Für 7 Tage
  • Wassertemperatur
  • Satellitenkarten
  • Wetterkarte
  • Widgets
  • user-avatar
    Anmelden

    Stündliche Wetter Bad Schlema

    Heute, 20 Oktober, Freitag

    Zeit Temperatur Niederschläge Wind Luftdruck Luftfeuchtigkeit
    00:00 +10°C° 0 mm 2 m/S 719 mmHg 71%
    01:00 +10°C° 0 mm 2 m/S 719 mmHg 73%
    02:00 +10°C° 0 mm 2 m/S 719 mmHg 73%
    03:00 +10°C° 0 mm 2 m/S 719 mmHg 72%
    04:00 +9°C° 0 mm 2 m/S 719 mmHg 71%
    05:00 +9°C° 0 mm 2 m/S 719 mmHg 71%
    06:00 +9°C° 0 mm 2 m/S 719 mmHg 70%
    07:00 +9°C° 0 mm 2 m/S 719 mmHg 70%
    08:00 +12°C° 0 mm 2 m/S 719 mmHg 66%
    09:00 +12°C° 0 mm 3 m/S 719 mmHg 62%
    10:00 +14°C° 0 mm 3 m/S 719 mmHg 57%
    11:00 +16°C° 0 mm 3 m/S 720 mmHg 56%
    12:00 +17°C° 0 mm 3 m/S 720 mmHg 54%
    13:00 +18°C° 0 mm 4 m/S 720 mmHg 52%
    14:00 +18°C° 0 mm 3 m/S 719 mmHg 57%
    15:00 +17°C° 0 mm 3 m/S 719 mmHg 62%
    16:00 +16°C° 0 mm 3 m/S 719 mmHg 67%
    17:00 +14°C° 0,1 mm 3 m/S 719 mmHg 72%
    18:00 +13°C° 0,1 mm 3 m/S 719 mmHg 77%
    19:00 +13°C° 0,1 mm 3 m/S 720 mmHg 81%
    20:00 +12°C° 0,1 mm 3 m/S 720 mmHg 85%
    21:00 +11°C° 0,1 mm 3 m/S 720 mmHg 88%
    22:00 +11°C° 0,1 mm 3 m/S 720 mmHg 91%
    23:00 +10°C° 0 mm 3 m/S 720 mmHg 92%

    Morgen, 21 Oktober, Samstag

    Zeit Temperatur Niederschläge Wind Luftdruck Luftfeuchtigkeit
    00:00 +9°C° 0 mm 3 m/S 720 mmHg 92%
    01:00 +9°C° 0 mm 3 m/S 720 mmHg 93%
    02:00 +9°C° 0 mm 3 m/S 720 mmHg 93%
    03:00 +8°C° 0 mm 3 m/S 720 mmHg 93%
    04:00 +8°C° 0 mm 3 m/S 720 mmHg 93%
    05:00 +9°C° 0 mm 3 m/S 720 mmHg 93%
    06:00 +9°C° 0 mm 2 m/S 720 mmHg 92%
    07:00 +9°C° 0 mm 2 m/S 720 mmHg 91%
    08:00 +11°C° 0 mm 3 m/S 720 mmHg 87%
    09:00 +12°C° 0 mm 3 m/S 720 mmHg 83%
    10:00 +13°C° 0 mm 4 m/S 720 mmHg 79%
    11:00 +14°C° 0 mm 4 m/S 720 mmHg 75%
    12:00 +15°C° 0 mm 4 m/S 720 mmHg 71%
    13:00 +17°C° 0 mm 4 m/S 720 mmHg 67%
    14:00 +17°C° 0 mm 3 m/S 720 mmHg 69%
    15:00 +17°C° 0 mm 3 m/S 719 mmHg 72%
    16:00 +16°C° 0 mm 2 m/S 719 mmHg 75%
    17:00 +15°C° 0 mm 2 m/S 719 mmHg 79%
    18:00 +15°C° 0 mm 2 m/S 719 mmHg 84%
    19:00 +14°C° 0 mm 2 m/S 719 mmHg 88%
    20:00 +14°C° 0,4 mm 2 m/S 719 mmHg 90%
    21:00 +13°C° 0,4 mm 3 m/S 719 mmHg 91%
    22:00 +13°C° 0,4 mm 3 m/S 720 mmHg 92%
    23:00 +12°C° 0,8 mm 3 m/S 720 mmHg 92%

    übermorgen, 22 Oktober, Sonntag

    Zeit Temperatur Niederschläge Wind Luftdruck Luftfeuchtigkeit
    00:00 +11°C° 0,8 mm 4 m/S 720 mmHg 91%
    01:00 +10°C° 0,8 mm 4 m/S 720 mmHg 90%
    02:00 +10°C° 0,5 mm 4 m/S 720 mmHg 90%
    03:00 +10°C° 0,5 mm 4 m/S 720 mmHg 89%
    04:00 +8°C° 0,5 mm 4 m/S 720 mmHg 89%
    05:00 +8°C° 0,1 mm 4 m/S 720 mmHg 89%
    06:00 +8°C° 0,1 mm 4 m/S 720 mmHg 89%
    07:00 +8°C° 0,1 mm 4 m/S 720 mmHg 89%
    08:00 +8°C° 0 mm 4 m/S 720 mmHg 85%
    09:00 +8°C° 0 mm 5 m/S 720 mmHg 82%
    10:00 +8°C° 0 mm 5 m/S 720 mmHg 79%
    11:00 +9°C° 0 mm 5 m/S 720 mmHg 76%
    12:00 +9°C° 0 mm 5 m/S 720 mmHg 74%
    13:00 +9°C° 0 mm 5 m/S 719 mmHg 71%
    14:00 +9°C° 0 mm 5 m/S 719 mmHg 71%
    15:00 +8°C° 0 mm 5 m/S 719 mmHg 71%
    16:00 +8°C° 0 mm 4 m/S 719 mmHg 71%
    17:00 +7°C° 0 mm 4 m/S 719 mmHg 75%
    18:00 +6°C° 0 mm 4 m/S 719 mmHg 79%
    19:00 +5°C° 0 mm 3 m/S 719 mmHg 84%
    20:00 +5°C° 0 mm 4 m/S 719 mmHg 85%
    21:00 +5°C° 0 mm 4 m/S 719 mmHg 86%
    22:00 +5°C° 0 mm 4 m/S 720 mmHg 87%
    23:00 +5°C° 0 mm 4 m/S 719 mmHg 87%

    23 Oktober, Montag

    Zeit Temperatur Niederschläge Wind Luftdruck Luftfeuchtigkeit
    00:00 +5°C° 0 mm 4 m/S 719 mmHg 87%
    01:00 +5°C° 0 mm 4 m/S 719 mmHg 87%
    02:00 +5°C° 0 mm 4 m/S 719 mmHg 87%
    03:00 +5°C° 0 mm 3 m/S 719 mmHg 87%
    04:00 +5°C° 0 mm 3 m/S 719 mmHg 88%
    05:00 +5°C° 0 mm 3 m/S 719 mmHg 88%
    06:00 +5°C° 0 mm 3 m/S 719 mmHg 88%
    07:00 +5°C° 0 mm 3 m/S 719 mmHg 88%
    08:00 +5°C° 0 mm 3 m/S 719 mmHg 85%
    09:00 +6°C° 0 mm 4 m/S 719 mmHg 81%
    10:00 +7°C° 0 mm 4 m/S 719 mmHg 78%
    11:00 +7°C° 0,2 mm 4 m/S 719 mmHg 80%
    12:00 +7°C° 0,2 mm 4 m/S 719 mmHg 81%
    13:00 +7°C° 0,2 mm 4 m/S 719 mmHg 83%
    14:00 +7°C° 0,7 mm 4 m/S 719 mmHg 85%
    15:00 +7°C° 0,7 mm 4 m/S 719 mmHg 88%
    16:00 +7°C° 0,7 mm 4 m/S 719 mmHg 90%
    17:00 +7°C° 0,7 mm 4 m/S 719 mmHg 91%
    18:00 +7°C° 0,7 mm 4 m/S 720 mmHg 92%
    19:00 +7°C° 0,7 mm 4 m/S 720 mmHg 92%
    20:00 +7°C° 0,5 mm 4 m/S 720 mmHg 93%
    21:00 +8°C° 0,5 mm 3 m/S 721 mmHg 93%
    22:00 +8°C° 0,5 mm 3 m/S 721 mmHg 94%
    23:00 +7°C° 0,2 mm 3 m/S 721 mmHg 94%

    24 Oktober, Dienstag

    Zeit Temperatur Niederschläge Wind Luftdruck Luftfeuchtigkeit
    00:00 +7°C° 0,2 mm 2 m/S 722 mmHg 95%
    01:00 +7°C° 0,2 mm 2 m/S 722 mmHg 95%
    02:00 +7°C° 0 mm 2 m/S 722 mmHg 95%
    03:00 +8°C° 0 mm 1 m/S 723 mmHg 95%
    04:00 +8°C° 0 mm 1 m/S 723 mmHg 96%
    05:00 +8°C° 0 mm 1 m/S 724 mmHg 96%
    06:00 +8°C° 0 mm 1 m/S 724 mmHg 96%
    07:00 +8°C° 0 mm 1 m/S 725 mmHg 96%
    08:00 +9°C° 0 mm 1 m/S 725 mmHg 92%
    09:00 +9°C° 0 mm 1 m/S 726 mmHg 88%
    10:00 +10°C° 0 mm 1 m/S 726 mmHg 84%
    11:00 +11°C° 0 mm 1 m/S 726 mmHg 80%
    12:00 +11°C° 0 mm 1 m/S 726 mmHg 76%
    13:00 +12°C° 0 mm 1 m/S 727 mmHg 72%
    14:00 +12°C° 0 mm 1 m/S 727 mmHg 74%
    15:00 +12°C° 0 mm 1 m/S 727 mmHg 76%
    16:00 +11°C° 0 mm 1 m/S 726 mmHg 79%
    17:00 +10°C° 0 mm 1 m/S 727 mmHg 83%
    18:00 +9°C° 0 mm 1 m/S 727 mmHg 87%
    19:00 +8°C° 0 mm 1 m/S 727 mmHg 91%
    20:00 +7°C° 0 mm 1 m/S 727 mmHg 92%
    21:00 +7°C° 0 mm 1 m/S 727 mmHg 92%
    22:00 +7°C° 0 mm 1 m/S 728 mmHg 93%
    23:00 +6°C° 0 mm 2 m/S 727 mmHg 92%

    25 Oktober, Mittwoch

    Zeit Temperatur Niederschläge Wind Luftdruck Luftfeuchtigkeit
    00:00 +5°C° 0 mm 2 m/S 727 mmHg 92%
    01:00 +5°C° 0 mm 2 m/S 727 mmHg 92%
    02:00 +5°C° 0 mm 2 m/S 727 mmHg 92%
    03:00 +5°C° 0 mm 2 m/S 727 mmHg 92%
    04:00 +5°C° 0 mm 2 m/S 727 mmHg 92%
    05:00 +5°C° 0 mm 2 m/S 727 mmHg 91%
    06:00 +5°C° 0 mm 2 m/S 727 mmHg 90%
    07:00 +5°C° 0 mm 2 m/S 728 mmHg 90%
    08:00 +7°C° 0 mm 2 m/S 728 mmHg 84%
    09:00 +9°C° 0 mm 2 m/S 728 mmHg 78%
    10:00 +10°C° 0 mm 2 m/S 729 mmHg 72%
    11:00 +12°C° 0 mm 2 m/S 728 mmHg 67%
    12:00 +14°C° 0 mm 2 m/S 728 mmHg 62%
    13:00 +15°C° 0 mm 1 m/S 728 mmHg 57%
    14:00 +15°C° 0 mm 1 m/S 728 mmHg 61%
    15:00 +14°C° 0 mm 1 m/S 728 mmHg 64%
    16:00 +13°C° 0 mm 1 m/S 728 mmHg 67%
    17:00 +12°C° 0 mm 1 m/S 728 mmHg 70%
    18:00 +11°C° 0 mm 1 m/S 728 mmHg 74%
    19:00 +9°C° 0 mm 1 m/S 728 mmHg 77%
    20:00 +9°C° 0 mm 1 m/S 728 mmHg 77%
    21:00 +9°C° 0 mm 1 m/S 728 mmHg 76%
    22:00 +9°C° 0 mm 1 m/S 728 mmHg 75%
    23:00 +8°C° 0 mm 1 m/S 728 mmHg 74%
    Mehr zeigen